Le nostre stazioni meteo in Italia

Pubblicità
Il mio iltempo24.it
Carterhouse, Gran Bretagna (99129): Temperatura & dewpoint: 18.06.2018 21:00:00 - 24.06.2018 21:00:00 (BST)Carterhouse, Gran Bretagna (99129): Temperatura -20cm & Temperatura -100cm: 18.06.2018 21:00:00 - 24.06.2018 21:00:00 (BST)Carterhouse, Gran Bretagna (99129): precipitazioni: 18.06.2018 21:00:00 - 24.06.2018 21:00:00 (BST)
Data & Tempo tt [°C] td [°C] tt -20cm [°C] tt -100cm [°C] rr [mm]
24.06.2018 21:00:00 - - - - -
24.06.2018 20:00:00 18,7 11,7 - - 0,0
24.06.2018 19:00:00 19,9 11,9 - - 0,0
24.06.2018 18:00:00 21,1 12,1 - - 0,0
24.06.2018 17:00:00 21,7 12,0 - - 0,0
24.06.2018 16:00:00 22,5 9,1 - - 0,0
24.06.2018 15:00:00 23,5 11,1 - - 0,0
24.06.2018 14:00:00 21,9 8,5 - - 0,0
24.06.2018 13:00:00 21,2 7,1 - - 0,0
24.06.2018 12:00:00 19,1 5,8 - - 0,0
24.06.2018 11:00:00 17,8 8,0 - - 0,0
24.06.2018 10:00:00 15,9 5,9 14,2 12,7 0,0
24.06.2018 09:00:00 13,7 7,0 - - 0,0
24.06.2018 08:00:00 13,1 8,0 - - 0,0
24.06.2018 07:00:00 10,3 8,4 - - 0,0
24.06.2018 06:00:00 8,8 8,3 - - 0,0
24.06.2018 05:00:00 5,3 4,8 - - 0,0
24.06.2018 04:00:00 5,8 5,1 - - 0,0
24.06.2018 03:00:00 6,5 5,4 - - 0,0
24.06.2018 02:00:00 7,8 6,4 - - 0,0
24.06.2018 01:00:00 9,1 7,1 - - 0,0
24.06.2018 00:00:00 9,0 6,6 - - 0,0
23.06.2018 23:00:00 9,9 6,9 - - 0,0
23.06.2018 22:00:00 10,5 6,8 - - 0,0
23.06.2018 21:00:00 13,4 7,8 - - 0,0
23.06.2018 20:00:00 15,6 8,5 - - 0,0
23.06.2018 19:00:00 15,3 8,5 - - 0,0
23.06.2018 18:00:00 15,7 8,4 - - 0,0
23.06.2018 17:00:00 16,4 9,2 - - 0,0
23.06.2018 16:00:00 16,4 8,0 - - 0,0
23.06.2018 15:00:00 15,3 7,3 - - 0,0
23.06.2018 14:00:00 15,5 7,8 - - 0,0
23.06.2018 13:00:00 14,9 6,4 - - 0,0
23.06.2018 12:00:00 15,3 7,9 - - 0,0
23.06.2018 11:00:00 13,9 8,0 - - 0,0
23.06.2018 10:00:00 12,4 8,0 14,2 12,7 0,0
23.06.2018 09:00:00 9,2 5,8 - - 0,0
23.06.2018 08:00:00 9,1 5,9 - - 0,0
23.06.2018 07:00:00 7,9 6,6 - - 0,0
23.06.2018 06:00:00 5,4 4,4 - - 0,0
23.06.2018 05:00:00 6,1 5,9 - - 0,0
23.06.2018 04:00:00 5,3 4,5 - - 0,0
23.06.2018 03:00:00 6,3 4,9 - - 0,0
23.06.2018 02:00:00 7,0 5,4 - - 0,0
23.06.2018 01:00:00 8,2 7,0 - - 0,0
23.06.2018 00:00:00 8,1 6,0 - - 0,0
22.06.2018 23:00:00 9,6 7,0 - - 0,0
22.06.2018 22:00:00 11,6 8,0 - - 0,0
22.06.2018 21:00:00 14,1 8,5 - - 0,0
22.06.2018 20:00:00 16,0 9,2 - - 0,0
22.06.2018 19:00:00 16,9 9,0 - - 0,0
22.06.2018 18:00:00 17,1 8,5 - - 0,0
22.06.2018 17:00:00 18,5 5,9 - - 0,0
22.06.2018 16:00:00 18,3 7,2 - - 0,0
22.06.2018 15:00:00 19,0 7,5 - - 0,0
22.06.2018 14:00:00 19,7 8,7 - - 0,0
22.06.2018 13:00:00 18,0 5,9 - - 0,0
22.06.2018 12:00:00 16,3 7,0 - - 0,0
22.06.2018 11:00:00 15,6 4,3 - - 0,0
22.06.2018 10:00:00 13,4 5,4 13,7 12,7 0,0
22.06.2018 09:00:00 12,3 5,9 - - 0,0
22.06.2018 08:00:00 9,7 4,7 - - 0,0
22.06.2018 07:00:00 7,6 4,4 - - 0,0
22.06.2018 06:00:00 5,0 4,2 - - 0,0
22.06.2018 05:00:00 4,1 3,3 - - 0,0
22.06.2018 04:00:00 4,2 2,8 - - 0,0
22.06.2018 03:00:00 4,7 3,2 - - 0,0
22.06.2018 02:00:00 4,9 3,2 - - 0,0
22.06.2018 01:00:00 6,8 4,3 - - 0,0
22.06.2018 00:00:00 8,1 4,8 - - 0,0
21.06.2018 23:00:00 8,8 4,6 - - 0,0
21.06.2018 22:00:00 10,2 5,3 - - 0,0
21.06.2018 21:00:00 13,0 5,9 - - 0,0
21.06.2018 20:00:00 13,3 5,4 - - 0,0
21.06.2018 19:00:00 14,1 4,6 - - 0,0
21.06.2018 18:00:00 15,2 4,4 - - 0,0
21.06.2018 17:00:00 14,6 4,2 - - 0,0
21.06.2018 16:00:00 14,6 4,3 - - 0,0
21.06.2018 15:00:00 15,1 4,8 - - 0,0
21.06.2018 14:00:00 14,8 5,8 - - 0,0
21.06.2018 13:00:00 14,0 4,6 - - 0,0
21.06.2018 12:00:00 12,4 4,9 - - 0,0
21.06.2018 11:00:00 11,3 3,9 - - 0,0
21.06.2018 10:00:00 10,7 4,4 13,7 12,7 0,0
21.06.2018 09:00:00 9,8 4,5 - - 0,0
21.06.2018 08:00:00 8,8 4,4 - - 0,0
21.06.2018 07:00:00 6,4 4,6 - - 0,0
21.06.2018 06:00:00 4,5 3,8 - - 0,0
21.06.2018 05:00:00 4,3 3,0 - - 0,0
21.06.2018 04:00:00 5,9 3,7 - - 0,0
21.06.2018 03:00:00 5,6 3,6 - - 0,0
21.06.2018 02:00:00 5,7 4,3 - - 0,0
21.06.2018 01:00:00 6,8 4,9 - - 0,0
21.06.2018 00:00:00 7,5 6,0 - - 0,0
20.06.2018 23:00:00 7,6 5,1 - - 0,0
20.06.2018 22:00:00 7,5 4,7 - - 0,0
20.06.2018 21:00:00 9,6 5,0 - - 0,0
20.06.2018 20:00:00 10,2 5,1 - - 0,0
20.06.2018 19:00:00 12,1 5,4 - - 0,0
20.06.2018 18:00:00 12,5 7,3 - - 0,0
20.06.2018 17:00:00 14,0 8,8 - - 0,0
20.06.2018 16:00:00 13,0 8,8 - - 0,0
20.06.2018 15:00:00 12,9 11,0 - - 0,0
20.06.2018 14:00:00 11,6 9,4 - - 0,0
20.06.2018 13:00:00 10,4 9,6 - - 0,0
20.06.2018 12:00:00 11,0 10,1 - - 0,0
20.06.2018 11:00:00 10,7 9,7 - - 0,0
20.06.2018 10:00:00 14,2 13,8 13,7 12,7 0,2
20.06.2018 09:00:00 13,9 13,6 - - 0,0
20.06.2018 08:00:00 13,5 13,2 - - 0,0
20.06.2018 07:00:00 13,5 13,3 - - 0,4
20.06.2018 06:00:00 13,5 13,2 - - 1,2
20.06.2018 05:00:00 13,7 13,5 - - 2,4
20.06.2018 04:00:00 13,9 13,7 - - 1,2
20.06.2018 03:00:00 14,0 13,8 - - 0,2
20.06.2018 02:00:00 13,8 13,6 - - 0,0
20.06.2018 01:00:00 13,3 13,2 - - 0,0
20.06.2018 00:00:00 13,1 13,0 - - 0,2
19.06.2018 23:00:00 12,5 11,9 - - 3,4
19.06.2018 22:00:00 10,9 10,6 - - 1,0
19.06.2018 21:00:00 10,3 10,0 - - 1,2
19.06.2018 20:00:00 10,5 9,6 - - 0,4
19.06.2018 19:00:00 11,8 8,1 - - 0,0
19.06.2018 18:00:00 12,7 7,5 - - 0,0
19.06.2018 17:00:00 12,9 6,6 - - 0,0
19.06.2018 16:00:00 13,3 6,1 - - 0,0
19.06.2018 15:00:00 12,4 6,5 - - 0,0
19.06.2018 14:00:00 13,0 6,8 - - 0,0
19.06.2018 13:00:00 12,4 6,4 - - 0,0
19.06.2018 12:00:00 12,5 5,9 - - 0,0
19.06.2018 11:00:00 12,1 5,7 - - 0,0
19.06.2018 10:00:00 11,5 6,1 13,7 12,7 0,0
19.06.2018 09:00:00 10,0 5,7 - - 0,0
19.06.2018 08:00:00 9,0 5,6 - - 0,0
19.06.2018 07:00:00 7,9 5,4 - - 0,0
19.06.2018 06:00:00 6,3 4,9 - - 0,0
19.06.2018 05:00:00 6,2 4,2 - - 0,0
19.06.2018 04:00:00 6,5 4,2 - - 0,0
19.06.2018 03:00:00 7,6 5,1 - - 0,0
19.06.2018 02:00:00 7,9 5,8 - - 0,0
19.06.2018 01:00:00 7,2 5,1 - - 0,0
19.06.2018 00:00:00 8,0 5,8 - - 0,0
18.06.2018 23:00:00 9,2 7,0 - - 0,0
18.06.2018 22:00:00 10,5 8,8 - - 0,0
18.06.2018 21:00:00 11,4 10,8 - - 0,0

tt = Temperatura
td = dewpoint
tt -20cm = Temperatura -20cm
tt -100cm = Temperatura -100cm
rr = precipitazioni

Stazioni seguenti

WeatherPro
AMSI
MeteoEarth